Location: Table Mountain
(47.2500°N, 120.5778°W)
Time: 08:30:54
(UTC-08:00)

Envisat - Pass Details

Date: 08 October 2017
Orbit: 764 x 766 km, 98.2° (Epoch: 18 December)

Event Time Altitude Azimuth Distance (km) Brightness Sun altitude
Exits shadow 19:21:41 13° 101° (E) 2,125 4.6 -10.0°
Maximum altitude 19:24:40 20° 60° (ENE) 1,701 4.3 -10.6°
Drops below altitude 10° 19:28:20 10° 14° (NNE) 2,312 5.4 -11.2°
Sets 19:31:10 0° 358° (N) 3,244 6.3 -11.7°
